Location: Killam
(52.7910°N, 111.8608°W)
Time: 13:31:00
(UTC+00:00)

Oscar 11 - Pass Details

Date: 15 March 2026
Orbit: 590 x 602 km, 97.8° (Epoch: 18 April)

Event Time Altitude Azimuth Distance (km) Brightness Sun altitude
Rises 12:48:06 0° 2° (N) 2,844 10.6 -8.9°
Reaches altitude 10° 12:51:01 10° 340° (NNW) 1,935 9.5 -8.4°
Maximum altitude 12:53:27 15° 304° (NW) 1,614 8.8 -8.1°
Drops below altitude 10° 12:55:52 10° 269° (W) 1,926 8.9 -7.7°
Enters shadow 12:55:57 10° 268° (W) 1,949 8.9 -7.7°
